This demonstration page uses our WeatherBlox Daily Observations layout. Learn more.

Left ArrowRight Arrow

39.51506, -84.39828

Hourly Observations for February 2, 2018

Temp ( °F °C ) Dew Point ( °F °C ) Humidity (%) Winds ( mph kmh ) Pressure ( in mb ) Visibility ( mi km ) Precip ( " mm )
12:15 am 00:15 Partly Cloudy 17 -8.1 6 -14.4 61 61 NNW 17 28 30.39 1029 10 16 0.00 0.00
12:35 am 00:35 Clear 16 -8.8 5 -14.9 62 62 N 15 24 30.39 1029 10 16 0.00 0.00
12:55 am 00:55 Clear 16 -9 5 -15 62 62 N 13 20 30.39 1029 10 16 0.00 0.00
1:15 am 01:15 Clear 15 -9.2 5 -14.9 64 64 N 8 13 30.39 1029 10 16 0.00 0.00
1:35 am 01:35 Partly Cloudy 15 -9.2 6 -14.7 65 65 NNW 10 17 30.39 1029 10 16 0.00 0.00
1:55 am 01:55 Mostly Cloudy 16 -9.1 5 -15 63 63 NNW 14 22 30.42 1030 10 16 0.00 0.00
2:15 am 02:15 Cloudy 16 -9.1 5 -14.8 64 64 NNW 7 11 30.42 1030 10 16 0.00 0.00
2:35 am 02:35 Mostly Cloudy 15 -9.2 1 -17.1 53 53 N 12 19 30.42 1030 10 16 0.00 0.00
2:55 am 02:55 Partly Cloudy 15 -9.5 1 -17.5 53 53 NNW 12 19 30.45 1031 10 16 0.00 0.00
3:15 am 03:15 Mostly Cloudy 14 -9.8 5 -15 66 66 N 8 13 30.45 1031 10 16 0.00 0.00
3:35 am 03:35 Partly Cloudy 14 -10 5 -15.2 66 66 NNW 3 6 30.45 1031 10 16 0.00 0.00
3:55 am 03:55 Partly Cloudy 14 -10 3 -16.1 61 61 NNW 9 15 30.45 1031 10 16 0.00 0.00
4:15 am 04:15 Clear 14 -10.2 2 -16.6 60 60 NNW 7 11 30.48 1032 10 16 0.00 0.00
4:35 am 04:35 Clear 13 -10.4 3 -16.3 62 62 NW 7 11 30.48 1032 10 16 0.00 0.00
4:55 am 04:55 Clear 13 -10.7 3 -16.2 64 64 NW 7 11 30.48 1032 10 16 0.00 0.00
5:15 am 05:15 Clear 13 -10.7 3 -16 65 65 NW 5 7 30.48 1032 10 16 0.00 0.00
5:35 am 05:35 Clear 13 -10.8 3 -15.9 66 66 NW 6 9 30.50 1033 10 16 0.00 0.00
5:55 am 05:55 Clear 12 -11.3 3 -15.9 69 69 WNW 3 6 30.50 1033 10 16 0.00 0.00
6:15 am 06:15 Clear 11 -11.5 4 -15.8 71 71 WNW 6 9 30.50 1033 10 16 0.00 0.00
6:35 am 06:35 Clear 12 -11 3 -15.9 67 67 NW 9 15 30.50 1033 10 16 0.00 0.00
6:55 am 06:55 Clear 12 -11.1 3 -16 67 67 NW 6 9 30.53 1034 10 16 0.00 0.00
7:15 am 07:15 Clear 11 -11.5 3 -16 70 70 WNW 5 7 30.53 1034 10 16 0.00 0.00
7:35 am 07:35 Clear 11 -11.6 3 -15.9 71 71 WNW 5 7 30.53 1034 10 16 0.00 0.00
7:55 am 07:55 Sunny 11 -11.6 3 -15.9 71 71 NW 6 9 30.53 1034 10 16 0.00 0.00
8:15 am 08:15 Sunny 12 -11.3 4 -15.6 71 71 WNW 5 7 30.53 1034 10 16 0.00 0.00
8:35 am 08:35 Sunny 13 -10.6 4 -15.7 66 66 WNW 8 13 30.56 1035 10 16 0.00 0.00
8:55 am 08:55 Sunny 14 -10.1 3 -15.9 63 63 NW 9 15 30.56 1035 10 16 0.00 0.00
9:15 am 09:15 Sunny 14 -9.8 3 -15.9 61 61 NW 10 17 30.56 1035 10 16 0.00 0.00
9:35 am 09:35 Partly Cloudy 15 -9.7 4 -15.8 61 61 WNW 9 15 30.56 1035 10 16 0.00 0.00
9:55 am 09:55 Sunny 16 -8.9 4 -15.7 58 58 WNW 9 15 30.59 1036 10 16 0.00 0.00
10:15 am 10:15 Partly Cloudy 17 -8.5 3 -16.1 55 55 WNW 10 17 30.59 1036 10 16 0.00 0.00
10:35 am 10:35 Partly Cloudy 17 -8.1 3 -16 53 53 NW 10 17 30.59 1036 10 16 0.00 0.00
10:55 am 10:55 Sunny 17 -8.5 1 -17.2 50 50 NW 8 13 30.59 1036 10 16 0.00 0.00
11:15 am 11:15 Cloudy 19 -7.3 3 -15.9 51 51 W 7 11 30.59 1036 10 16 0.00 0.00
11:35 am 11:35 Partly Cloudy 19 -7.3 2 -16.4 49 49 W 8 13 30.59 1036 10 16 0.00 0.00
11:55 am 11:55 Partly Cloudy 19 -7 2 -16.5 47 47 W 8 13 30.59 1036 10 16 0.00 0.00
12:15 pm 12:15 Partly Cloudy 19 -7 2 -16.9 46 46 W 8 13 30.59 1036 10 16 0.00 0.00
12:35 pm 12:35 Partly Cloudy 19 -7.4 1 -17.3 45 45 NNW 9 15 30.59 1036 10 16 0.00 0.00
12:55 pm 12:55 Partly Cloudy 20 -6.7 2 -16.5 46 46 SW 5 7 30.59 1036 10 16 0.00 0.00
1:15 pm 13:15 Partly Cloudy 23 -5.1 4 -15.6 44 44 NW 6 9 30.59 1036 10 16 0.00 0.00
1:35 pm 13:35 Sunny 21 -5.9 3 -16.3 44 44 W 8 13 30.56 1035 10 16 0.00 0.00
1:55 pm 13:55 Sunny 21 -5.9 2 -16.6 43 43 WSW 5 7 30.56 1035 10 16 0.00 0.00
2:15 pm 14:15 Sunny 23 -5.2 3 -16.3 42 42 SW 8 13 30.56 1035 10 16 0.00 0.00
2:35 pm 14:35 Sunny 22 -5.4 2 -16.7 41 41 WNW 6 9 30.56 1035 10 16 0.00 0.00
2:55 pm 14:55 Partly Cloudy 23 -4.8 3 -16.1 41 41 WSW 7 11 30.53 1034 10 16 0.00 0.00
3:15 pm 15:15 Sunny 23 -4.9 3 -16.3 41 41 WSW 10 17 30.53 1034 10 16 0.00 0.00
3:35 pm 15:35 Sunny 24 -4.7 3 -16.2 41 41 WSW 8 13 30.53 1034 10 16 0.00 0.00
3:55 pm 15:55 Sunny 23 -5.1 1 -17 39 39 WSW 3 6 30.53 1034 10 16 0.00 0.00
4:15 pm 16:15 Sunny 24 -4.7 2 -16.7 39 39 W 13 20 30.53 1034 10 16 0.00 0.00
4:35 pm 16:35 Sunny 23 -4.8 2 -16.7 39 39 WSW 7 11 30.53 1034 10 16 0.00 0.00
4:55 pm 16:55 Sunny 23 -5 2 -16.5 40 40 W 13 20 30.53 1034 10 16 0.00 0.00
5:15 pm 17:15 Sunny 23 -5.2 2 -16.6 41 41 W 8 13 30.53 1034 10 16 0.00 0.00
5:35 pm 17:35 Sunny 22 -5.6 2 -16.6 42 42 WSW 9 15 30.53 1034 10 16 0.00 0.00
5:55 pm 17:55 Sunny 21 -6.1 2 -16.6 44 44 W 8 13 30.53 1034 10 16 0.00 0.00
6:15 pm 18:15 Clear 20 -6.8 3 -16.1 48 48 W 6 9 30.53 1034 10 16 0.00 0.00
6:35 pm 18:35 Clear 19 -7.4 3 -15.9 51 51 W 6 9 30.53 1034 10 16 0.00 0.00
6:55 pm 18:55 Clear 18 -7.8 4 -15.6 54 54 WSW 5 7 30.53 1034 10 16 0.00 0.00
7:15 pm 19:15 Clear 18 -8 5 -14.9 58 58 WSW 7 11 30.53 1034 10 16 0.00 0.00
7:35 pm 19:35 Clear 17 -8.3 6 -14.6 61 61 SW 8 13 30.50 1033 10 16 0.00 0.00
7:55 pm 19:55 Clear 17 -8.2 6 -14.5 61 61 WSW 7 11 30.53 1034 10 16 0.00 0.00
8:15 pm 20:15 Clear 17 -8.6 5 -14.8 61 61 WSW 5 7 30.53 1034 10 16 0.00 0.00
8:35 pm 20:35 Clear 17 -8.3 6 -14.5 61 61 WSW 5 7 30.53 1034 10 16 0.00 0.00
8:55 pm 20:55 Clear 15 -9.3 6 -14.6 66 66 SW 7 11 30.53 1034 10 16 0.00 0.00
9:15 pm 21:15 Clear 16 -8.8 6 -14.4 64 64 WSW 5 7 30.50 1033 10 16 0.00 0.00
9:35 pm 21:35 Clear 17 -8.4 6 -14.6 61 61 WSW 5 7 30.50 1033 10 16 0.00 0.00
9:55 pm 21:55 Clear 16 -9.1 6 -14.2 67 67 W 3 6 30.50 1033 10 16 0.00 0.00
10:15 pm 22:15 Clear 16 -9.1 6 -14.5 65 65 Calm 30.50 1033 10 16 0.00 0.00
10:35 pm 22:35 Clear 11 -11.4 7 -13.9 82 82 WSW 6 9 30.50 1033 10 16 0.00 0.00
10:55 pm 22:55 Clear 15 -9.5 7 -14 70 70 SW 5 7 30.53 1034 10 16 0.00 0.00
11:15 pm 23:15 Clear 15 -9.6 7 -14 71 71 SW 5 7 30.53 1034 10 16 0.00 0.00
11:35 pm 23:35 Clear 15 -9.6 7 -13.9 71 71 SW 7 11 30.50 1033 10 16 0.00 0.00
11:55 pm 23:55 Clear 16 -9 8 -13.1 72 72 SSW 6 9 30.50 1033 10 16 0.00 0.00

Powered by AerisWeather